Hourly Data Report for September 26, 2017

All times are specified in Local Standard Time (LST). Add 1 hour to adjust for Daylight Saving Time where and when it is observed.

BATHURST A
NEW BRUNSWICK

47°37'47.000" N
65°44'20.000" W
58.80 m
8100505
71574
ZBF

Download Data

Hourly Data (September 2017)
Hourly Data Report for September 26, 2017
Temp Definition
°C
Dew Point Temp Definition
°C
Rel Hum Definition
%
Wind Dir Definition
10's deg

Wind Spd Definition
km/h
Visibility Definition
km
Stn Press Definition
kPa
Hmdx Definition


Wind Chill Definition


Weather Definition


TIME
00:00 Legend Double Dagger 13.8 13.2 96 24 3 24.1 100.33     LegendNANA
01:00 Legend Double Dagger 22.9 18.6 77 26 19 24.1 100.32 29   LegendNANA
02:00 Legend Double Dagger 24.1 18.6 71 26 23 24.1 100.29 31   Clear
03:00 Legend Double Dagger 23.7 18.4 71 26 19 24.1 100.26 30   LegendNANA
04:00 Legend Double Dagger 22.7 18.1 75 25 17 24.1 100.27 29   LegendNANA
05:00 Legend Double Dagger 22.5 18.0 75 24 16 24.1 100.28 29   Clear
06:00 Legend Double Dagger 22.4 17.8 75 25 17 24.1 100.31 28   LegendNANA
07:00 Legend Double Dagger 22.8 17.7 73 25 21 12.9 100.35 29   LegendNANA
08:00 Legend Double Dagger 24.0 18.2 70 26 18 12.9 100.35 30   Mostly Cloudy
09:00 Legend Double Dagger 25.4 18.4 65 27 28 12.9 100.36 32   LegendNANA
10:00 Legend Double Dagger 26.8 18.1 58 28 23 12.9 100.39 33   LegendNANA
11:00 Legend Double Dagger 27.0 17.6 56 29 18 16.1 100.44 33   Mostly Cloudy
12:00 Legend Double Dagger 28.1 18.0 54 28 17 19.3 100.46 34   LegendNANA
13:00 Legend Double Dagger 26.0 18.3 62 1 9 19.3 100.49 32   LegendNANA
14:00 Legend Double Dagger 25.5 16.7 58 1 15 24.1 100.55 31   Mostly Cloudy
15:00 Legend Double Dagger 24.2 15.0 56 2 15 24.1 100.65 28   LegendNANA
16:00 Legend Double Dagger 21.9 14.6 63 5 9 24.1 100.74 26   LegendNANA
17:00 Legend Double Dagger 20.8 13.7 63 3 14 24.1 100.79     Mainly Clear
18:00 Legend Double Dagger 18.9 13.4 70 12 14 24.1 100.90     LegendNANA
19:00 Legend Double Dagger 15.9 10.7 71 11 18 24.1 101.05     LegendNANA
20:00 Legend Double Dagger 13.8 8.8 72 12 11 24.1 101.20     Cloudy
21:00 Legend Double Dagger 13.2 7.5 68 10 10 24.1 101.25     LegendNANA
22:00 Legend Double Dagger 12.7 6.5 66 9 14 24.1 101.25     LegendNANA
23:00 Legend Double Dagger 12.4 6.6 68 10 13 24.1 101.26     Cloudy

Notes on Data Quality.

Legend

  • E = Estimated
  • M = Missing
  • NA = Not Available
  • ‡ = Partner data that is not subject to review by the National Climate Archives
Date modified: